DW1253 Weather Reports


time (UTC)temp
F
wind
direction
speed
knots
gust
knots
rain 1hr
in
rain 24hr
in
rain mn
in
humidity
%
barometer
mb
20260507105413 36 241 0.9 1.7 0.00 0.11 0.00 93 1010.0
20260507104855 36 241 0.9 1.7 0.00 0.11 0.00 93 1010.1
20260507104348 36 241 0.0 1.7 0.00 0.11 0.00 93 1010.0
20260507103838 36 241 0.0 0.9 0.00 0.11 0.00 93 1009.9
20260507103353 36 241 0.0 0.9 0.00 0.11 0.00 93 1009.9
20260507102849 36 241 0.0 0.9 0.00 0.11 0.00 93 1010.0
20260507102346 36 241 0.0 0.9 0.00 0.11 0.00 93 1009.9
20260507101835 36 241 0.0 1.7 0.00 0.11 0.00 93 1009.9
20260507101354 36 241 0.0 1.7 0.00 0.11 0.00 93 1010.0
20260507100900 36 241 0.0 1.7 0.00 0.11 0.00 93 1010.0
20260507100400 36 241 0.0 2.6 0.00 0.11 0.00 93 1009.9
20260507095843 36 241 0.0 3.5 0.00 0.19 0.00 93 1009.9
20260507095340 36 252 0.9 3.5 0.00 0.19 0.00 93 1009.9
20260507094851 36 229 0.9 2.6 0.00 0.19 0.00 93 1009.8
20260507094351 37 254 0.0 1.7 0.00 0.19 0.00 93 1009.9
20260507093836 37 254 0.0 2.6 0.00 0.19 0.00 93 1009.8
20260507093347 37 265 0.0 1.7 0.00 0.19 0.00 93 1009.8
20260507092842 37 232 0.0 1.7 0.00 0.19 0.00 93 1009.8
20260507092354 37 232 0.0 0.9 0.00 0.19 0.00 93 1009.7
20260507091854 37 232 0.0 0.0 0.00 0.19 0.00 93 1009.8
20260507090856 38 232 0.0 1.7 0.00 0.19 0.00 93 1009.8
20260507090349 38 232 0.0 1.7 0.00 0.19 0.00 93 1009.8
20260507085839 38 232 0.0 1.7 0.00 0.25 0.00 93 1009.8
20260507085354 38 232 0.9 1.7 0.00 0.25 0.00 93 1009.8
20260507084855 38 232 0.9 1.7 0.00 0.25 0.00 93 1009.8
20260507084415 38 232 0.0 0.9 0.00 0.25 0.00 93 1009.9
20260507083837 38 232 0.0 0.9 0.00 0.25 0.00 93 1010.0
20260507083342 38 232 0.0 0.9 0.00 0.25 0.00 93 1010.0
20260507082834 38 232 0.0 0.9 0.00 0.25 0.00 93 1010.1
20260507082337 38 232 0.0 2.6 0.00 0.25 0.00 93 1010.1
20260507081840 38 232 0.9 3.5 0.00 0.25 0.00 93 1010.1
20260507081347 38 232 0.9 3.5 0.00 0.25 0.00 93 1010.1
20260507080845 38 244 0.9 4.3 0.00 0.25 0.00 93 1010.1
20260507080348 38 244 0.0 4.3 0.00 0.25 0.00 92 1010.1
20260507075835 38 247 0.9 3.5 0.00 0.29 0.00 92 1010.2
20260507075356 38 247 0.9 3.5 0.00 0.29 0.00 92 1010.2
20260507074914 38 248 0.0 2.6 0.00 0.29 0.00 92 1010.1
20260507074348 38 248 0.0 2.6 0.00 0.29 0.00 92 1010.1
20260507073845 38 248 0.9 2.6 0.00 0.29 0.00 92 1010.0
20260507073337 38 248 0.0 1.7 0.00 0.29 0.00 91 1010.0
20260507072854 38 248 0.9 1.7 0.00 0.29 0.00 91 1010.0
20260507072344 38 248 0.0 1.7 0.00 0.29 0.00 91 1009.9
20260507071846 38 248 0.9 1.7 0.00 0.29 0.00 91 1010.0
20260507071344 38 248 0.0 0.0 0.00 0.29 0.00 91 1010.0
20260507070837 38 248 0.0 1.7 0.00 0.29 0.00 91 1010.0
20260507070337 38 248 0.0 1.7 0.00 0.29 0.00 91 1010.0
20260507065850 38 248 0.0 2.6 0.00 0.45 0.00 90 1010.1
20260507065337 38 252 0.0 1.7 0.00 0.45 0.00 90 1010.3
20260507064839 38 284 0.0 0.0 0.00 0.45 0.00 90 1010.4
20260507064336 38 284 0.0 0.0 0.00 0.45 0.00 90 1010.5
20260507063907 38 284 0.0 0.0 0.00 0.45 0.00 90 1010.5
20260507063344 38 284 0.0 0.0 0.00 0.45 0.00 90 1010.6
20260507062846 38 284 0.0 0.0 0.00 0.45 0.00 90 1010.6
20260507062342 39 284 0.0 0.0 0.00 0.45 0.00 90 1010.6
20260507061859 39 284 0.0 0.0 0.00 0.45 0.00 90 1010.5
20260507061334 39 284 0.0 0.0 0.00 0.45 0.00 90 1010.5
20260507060855 39 284 0.0 0.0 0.00 0.45 0.00 91 1010.6
20260507060348 39 284 0.0 0.0 0.00 0.45 0.00 91 1010.5
20260507055836 39 284 0.0 0.0 0.00 0.55 0.00 91 1010.4
20260507055334 40 284 0.0 0.0 0.00 0.55 0.00 91 1010.5
20260507054849 40 284 0.0 0.0 0.00 0.55 0.00 91 1010.6
20260507054342 40 284 0.0 0.0 0.00 0.55 0.00 91 1010.5
20260507053834 40 284 0.0 0.0 0.00 0.55 0.00 91 1010.6
20260507053351 40 284 0.0 0.0 0.00 0.55 0.00 91 1010.7
20260507052913 40 284 0.0 0.0 0.00 0.55 0.00 91 1010.7
20260507052407 40 284 0.0 0.0 0.00 0.55 0.00 91 1010.8
20260507051840 40 284 0.0 0.0 0.00 0.55 0.00 91 1010.8
20260507051336 41 284 0.0 0.0 0.00 0.55 0.00 91 1011.1
20260507050848 41 284 0.0 0.0 0.00 0.55 0.00 91 1010.9
20260507050344 41 284 0.0 0.0 0.00 0.55 0.00 91 1010.9
20260507045846 41 284 0.0 0.0 0.00 0.61 0.00 91 1011.0
20260507045344 41 284 0.0 0.0 0.00 0.61 0.00 91 1011.1
20260507044859 41 284 0.0 0.0 0.00 0.61 0.00 91 1011.1
20260507044340 41 284 0.0 0.0 0.00 0.61 0.00 91 1011.1
20260507043856 41 284 0.0 0.0 0.00 0.61 0.00 91 1011.1
20260507043412 41 284 0.0 0.0 0.00 0.61 0.00 91 1011.2
20260507042908 41 284 0.0 0.0 0.00 0.61 0.00 91 1011.0
20260507042356 41 284 0.0 0.0 0.00 0.61 0.00 91 1011.1
20260507041853 41 284 0.0 0.0 0.00 0.61 0.00 91 1011.1
20260507041415 41 284 0.0 0.0 0.00 0.61 0.00 91 1011.0
20260507040907 41 284 0.0 0.0 0.00 0.61 0.00 91 1011.1
20260507040342 41 284 0.0 0.0 0.00 0.61 0.00 91 1011.1
20260507035854 41 284 0.0 0.0 0.00 0.67 0.61 91 1011.1
20260507035352 41 284 0.0 0.0 0.00 0.67 0.61 91 1011.1
20260507034843 41 284 0.0 0.0 0.00 0.67 0.61 91 1011.0
20260507034401 41 284 0.0 0.0 0.00 0.67 0.61 91 1011.0
20260507033918 41 284 0.0 0.0 0.00 0.67 0.61 91 1010.9
20260507033335 41 284 0.0 0.0 0.00 0.67 0.61 90 1010.9
20260507032840 41 284 0.0 0.0 0.00 0.67 0.61 90 1010.9
20260507032340 41 284 0.0 0.0 0.00 0.67 0.61 90 1011.2
20260507031835 41 284 0.0 0.0 0.00 0.67 0.61 90 1011.0
20260507031336 41 284 0.0 0.0 0.00 0.67 0.61 90 1011.0
20260507030858 41 284 0.0 0.0 0.00 0.67 0.61 90 1011.2
20260507030353 41 284 0.0 0.0 0.00 0.67 0.61 90 1011.2
20260507025851 41 284 0.0 0.0 0.00 0.76 0.61 89 1011.2
20260507025351 41 284 0.0 0.0 0.00 0.76 0.61 89 1011.1
20260507024841 41 284 0.0 0.0 0.00 0.76 0.61 89 1010.9
20260507024403 41 284 0.0 0.0 0.00 0.76 0.61 89 1010.8
20260507023843 41 284 0.0 0.0 0.00 0.76 0.61 89 1010.8
20260507023358 41 284 0.0 0.0 0.00 0.76 0.61 89 1010.6
20260507022859 41 284 0.0 0.0 0.00 0.76 0.61 89 1010.5
20260507022359 41 284 0.0 0.0 0.00 0.76 0.61 89 1010.5
20260507021406 41 284 0.0 0.0 0.00 0.76 0.61 89 1010.7
20260507020846 41 284 0.0 0.0 0.00 0.76 0.61 89 1010.7
20260507020336 41 284 0.0 0.0 0.00 0.76 0.61 89 1010.8
20260507015853 41 284 0.0 0.0 0.00 0.83 0.61 89 1010.8
20260507015335 41 284 0.0 0.0 0.00 0.83 0.61 89 1010.8
20260507014837 41 284 0.0 0.0 0.00 0.83 0.61 89 1011.0
20260507014335 41 284 0.0 0.0 0.00 0.83 0.61 89 1010.9
20260507013835 41 284 0.0 0.0 0.00 0.83 0.61 89 1010.9
20260507013355 41 284 0.0 0.0 0.00 0.83 0.61 89 1010.9
20260507012847 41 284 0.0 0.0 0.00 0.83 0.61 89 1011.0
20260507012343 41 284 0.0 0.0 0.00 0.83 0.61 94 1011.1
20260507011842 41 284 0.0 0.0 0.00 0.83 0.61 89 1010.9
20260507011411 41 284 0.0 0.0 0.00 0.83 0.61 89 1010.8
20260507010847 41 284 0.0 0.0 0.00 0.83 0.61 89 1010.8
20260507010408 41 284 0.0 0.0 0.00 0.83 0.61 89 1010.8
20260507005837 41 284 0.0 0.0 0.00 0.91 0.61 89 1010.7
20260507005353 41 284 0.0 0.0 0.00 0.91 0.61 89 1010.5
20260507004910 41 284 0.0 0.9 0.00 0.91 0.61 89 1010.4
20260507004346 41 284 0.0 0.9 0.00 0.91 0.61 89 1010.5
20260507003845 41 284 0.0 0.0 0.00 0.91 0.61 89 1010.6
20260507003346 41 284 0.0 0.0 0.00 0.91 0.61 89 1010.7
20260507002848 41 284 0.0 0.0 0.00 0.91 0.61 89 1010.6
20260507002343 42 284 0.0 0.0 0.00 0.91 0.61 89 1010.6
20260507001844 42 284 0.0 0.0 0.00 0.91 0.61 89 1010.5
20260507001416 42 284 0.0 0.0 0.00 0.91 0.61 89 1010.1
20260507000835 42 284 0.0 0.0 0.00 0.91 0.61 89 1010.1
20260507000350 42 284 0.0 0.0 0.00 0.91 0.61 89 1010.1
20260506235911 42 284 0.0 0.0 0.00 1.01 0.61 89 1010.1
20260506235350 42 284 0.0 0.0 0.00 1.01 0.61 89 1010.0
20260506234845 42 284 0.0 0.0 0.00 1.01 0.61 89 1010.1
20260506234342 42 284 0.0 0.0 0.00 1.01 0.61 89 1010.0
20260506233849 42 302 0.0 0.0 0.00 1.01 0.61 90 1010.0
20260506233347 42 302 0.0 0.0 0.00 1.01 0.61 90 1009.9
20260506232844 42 178 0.0 0.0 0.00 1.01 0.61 90 1010.0
20260506232344 43 269 0.0 0.0 0.00 1.01 0.61 90 1010.1
20260506231849 43 269 0.0 0.9 0.00 1.01 0.61 90 1010.1
20260506231410 43 265 0.0 2.6 0.00 1.01 0.61 90 1009.8
20260506230839 43 265 0.9 2.6 0.00 1.01 0.61 90 1009.9
20260506230343 43 184 0.9 2.6 0.00 1.01 0.61 90 1010.0
20260506225856 43 315 0.9 2.6 0.00 1.17 0.61 90 1009.9
20260506225348 43 262 0.9 3.5 0.00 1.17 0.61 90 1009.8
20260506224906 43 343 0.9 3.5 0.00 1.17 0.61 90 1009.9
20260506224345 43 278 0.9 2.6 0.00 1.17 0.61 90 1009.9
20260506223835 44 95 0.0 2.6 0.00 1.17 0.61 90 1009.8
20260506223350 44 355 0.0 1.7 0.00 1.17 0.61 89 1009.5
20260506222853 44 315 0.9 2.6 0.00 1.17 0.61 89 1009.5
20260506222348 44 225 0.0 2.6 0.00 1.17 0.61 89 1009.4
20260506221913 44 262 0.0 5.2 0.00 1.17 0.61 89 1009.4
20260506221352 45 261 1.7 5.2 0.00 1.17 0.61 88 1009.3
20260506220914 45 238 0.9 5.2 0.00 1.17 0.61 88 1009.0
20260506220417 45 355 1.7 4.3 0.00 1.17 0.61 88 1009.0
20260506215849 46 331 0.9 2.6 0.00 1.31 0.61 87 1008.9
20260506215336 46 328 0.0 2.6 0.00 1.31 0.61 87 1008.8
20260506214842 46 339 0.0 7.0 0.00 1.31 0.61 86 1008.8
20260506214356 46 238 3.5 7.0 0.00 1.31 0.61 85 1008.7
20260506213849 47 279 0.0 8.7 0.00 1.31 0.61 84 1008.7
20260506213346 47 224 0.9 8.7 0.00 1.31 0.61 83 1008.6
20260506212853 48 299 0.9 7.0 0.00 1.31 0.61 82 1008.7
20260506212335 48 342 1.7 7.0 0.00 1.31 0.61 81 1008.6
20260506211853 49 217 2.6 5.2 0.00 1.31 0.61 81 1008.5
20260506211349 50 182 0.9 7.0 0.00 1.31 0.61 81 1008.3
20260506210845 50 227 3.5 9.6 0.00 1.31 0.61 80 1008.3
20260506210341 50 234 3.5 7.0 0.00 1.31 0.61 79 1008.0
20260506205855 50 198 0.9 3.5 0.00 1.32 0.61 79 1008.0
20260506205343 51 172 0.9 4.3 0.00 1.32 0.61 77 1007.9
20260506204841 50 209 1.7 4.3 0.00 1.32 0.61 82 1007.9
20260506204358 49 279 2.6 4.3 0.00 1.32 0.61 83 1008.1
20260506203835 49 263 1.7 6.1 0.00 1.32 0.61 82 1008.0
20260506203354 49 236 1.7 6.1 0.00 1.32 0.61 82 1008.1
20260506202854 49 209 1.7 7.0 0.00 1.32 0.61 82 1008.2
20260506202401 50 223 2.6 7.0 0.00 1.32 0.61 82 1008.1
20260506201837 50 189 2.6 6.1 0.00 1.32 0.61 83 1008.0
20260506201336 50 277 1.7 4.3 0.00 1.32 0.61 82 1008.0
20260506200854 50 213 2.6 4.3 0.00 1.32 0.61 80 1008.1
20260506200339 50 15 1.7 6.1 0.00 1.32 0.61 81 1008.0
20260506195848 50 248 0.9 6.1 0.00 1.32 0.61 80 1008.1
20260506195406 51 211 0.9 4.3 0.00 1.32 0.61 78 1008.0
20260506194836 51 246 0.9 3.5 0.00 1.32 0.61 78 1008.0
20260506194353 51 245 0.9 3.5 0.00 1.32 0.61 78 1007.8
20260506193909 51 96 0.9 7.0 0.00 1.32 0.61 84 1007.9
20260506193349 50 349 2.6 7.0 0.00 1.32 0.61 86 1008.0
20260506192849 50 302 0.0 1.7 0.00 1.32 0.61 87 1007.9
20260506192349 49 292 0.0 2.6 0.00 1.32 0.61 85 1008.0
20260506191839 49 256 0.9 2.6 0.00 1.32 0.61 86 1008.0
20260506191402 49 254 0.0 3.5 0.00 1.32 0.61 84 1008.0
20260506190845 49 229 0.0 3.5 0.00 1.32 0.61 85 1008.1
20260506190344 49 344 0.9 3.5 0.00 1.32 0.61 84 1008.1
20260506185851 49 28 0.0 3.5 0.00 1.32 0.61 86 1008.1
20260506185349 49 281 0.0 3.5 0.00 1.32 0.61 86 1008.0
20260506184841 49 340 0.9 2.6 0.00 1.32 0.61 86 1008.1
20260506184353 49 194 0.9 3.5 0.00 1.32 0.61 88 1007.9
20260506183835 49 218 0.0 4.3 0.00 1.32 0.61 86 1007.8
20260506183405 49 217 1.7 4.3 0.00 1.32 0.61 87 1007.8
20260506182844 48 199 2.6 4.3 0.00 1.32 0.61 89 1007.9
20260506182335 48 224 1.7 3.5 0.00 1.32 0.61 90 1007.9
20260506181849 48 200 0.0 2.6 0.00 1.32 0.61 94 1008.0
20260506181342 47 212 0.9 2.6 0.00 1.32 0.61 94 1008.1
20260506180837 47 71 0.0 2.6 0.00 1.32 0.61 94 1008.1
20260506180330 47 321 0.0 1.7 0.00 1.32 0.61 94 1008.1
20260506175845 47 312 0.9 1.7 0.00 1.32 0.61 94 1008.1
20260506175345 46 290 0.9 1.7 0.00 1.32 0.61 94 1008.0
20260506174849 46 301 0.9 3.5 0.00 1.32 0.61 94 1008.0
20260506174348 46 340 0.9 3.5 0.00 1.32 0.61 95 1008.0
20260506173841 46 281 0.9 2.6 0.00 1.32 0.61 95 1008.1
20260506173337 46 242 0.9 2.6 0.00 1.32 0.61 95 1008.1
20260506172834 46 136 0.9 1.7 0.00 1.32 0.61 95 1008.1
20260506172351 46 154 0.0 3.5 0.00 1.32 0.61 95 1008.0
20260506171837 46 155 0.0 3.5 0.00 1.32 0.61 95 1007.9
20260506171347 46 317 0.9 3.5 0.00 1.32 0.61 95 1007.9
20260506170847 45 316 0.0 4.3 0.00 1.32 0.61 95 1007.9
20260506170411 45 316 1.7 4.3 0.00 1.32 0.61 95 1008.2
20260506165903 45 302 1.7 4.3 0.00 1.32 0.61 95 1007.9
20260506165348 45 304 0.9 4.3 0.00 1.32 0.61 95 1007.9
20260506164844 46 351 0.9 3.5 0.00 1.32 0.61 95 1007.8
20260506164341 46 302 0.0 2.6 0.00 1.32 0.61 95 1007.7
20260506163843 46 301 0.9 2.6 0.00 1.32 0.61 95 1007.7
20260506163344 46 192 0.0 3.5 0.00 1.32 0.61 95 1007.8
20260506162902 46 251 0.9 6.1 0.00 1.32 0.61 95 1007.6
20260506162356 46 344 2.6 6.1 0.00 1.32 0.61 95 1007.5
20260506161838 46 136 1.7 3.5 0.00 1.32 0.61 95 1007.3
20260506161420 46 309 0.9 4.3 0.00 1.32 0.61 95 1007.4
20260506160852 46 55 1.7 4.3 0.00 1.32 0.61 95 1007.4
20260506160353 46 5 0.9 3.5 0.00 1.32 0.61 95 1007.4
20260506155839 46 360 1.7 4.3 0.00 1.32 0.61 95 1007.5
20260506155404 46 360 2.6 4.3 0.00 1.32 0.61 95 1007.4
20260506154839 46 23 0.0 3.5 0.00 1.32 0.61 95 1007.4
20260506154336 46 27 0.0 3.5 0.00 1.32 0.61 95 1007.4
20260506153838 46 23 0.9 3.5 0.00 1.32 0.61 95 1007.4
20260506153351 46 5 1.7 3.5 0.00 1.32 0.61 95 1007.4
20260506152841 46 16 0.0 2.6 0.00 1.32 0.61 95 1007.3
20260506152410 46 22 0.9 5.2 0.00 1.32 0.61 96 1007.3
20260506151854 45 349 0.9 5.2 0.00 1.32 0.61 96 1007.3
20260506151351 45 34 0.9 3.5 0.00 1.32 0.61 96 1007.3
20260506150855 45 32 1.7 3.5 0.00 1.32 0.61 96 1007.2
20260506150412 45 9 1.7 3.5 0.00 1.32 0.61 96 1007.3
20260506145855 45 40 2.6 3.5 0.00 1.32 0.61 96 1007.3
20260506145412 45 11 1.7 3.5 0.00 1.32 0.61 96 1007.2
20260506144842 45 25 1.7 3.5 0.01 1.32 0.61 96 1007.0
20260506144354 46 355 0.9 3.5 0.01 1.32 0.61 96 1006.9
20260506143849 45 80 1.7 3.5 0.01 1.32 0.61 96 1006.8
20260506143344 45 80 1.7 3.5 0.01 1.32 0.61 96 1006.8
20260506142838 45 76 2.6 3.5 0.01 1.32 0.61 96 1006.7
20260506142336 45 90 0.9 2.6 0.01 1.32 0.61 96 1006.6
20260506141852 44 91 0.9 1.7 0.01 1.32 0.61 96 1006.9
20260506141348 44 91 0.9 2.6 0.01 1.32 0.61 96 1006.8
20260506140844 44 91 0.9 3.5 0.01 1.32 0.61 96 1006.8
20260506140401 44 91 0.9 5.2 0.01 1.32 0.61 96 1006.7
20260506135836 44 104 1.7 6.1 0.01 1.32 0.61 96 1006.7
20260506135336 44 84 2.6 6.1 0.01 1.32 0.61 96 1006.5
20260506134837 45 86 2.6 5.2 0.00 1.31 0.60 96 1006.4
20260506134354 45 138 1.7 3.5 0.01 1.31 0.60 96 1006.5
20260506133852 44 63 1.7 4.3 0.01 1.31 0.60 96 1006.5
20260506133348 44 89 1.7 6.1 0.01 1.31 0.60 96 1006.5
20260506132848 44 89 3.5 6.1 0.01 1.31 0.60 96 1006.6
20260506132346 44 74 0.9 2.6 0.02 1.31 0.60 96 1006.5
20260506131841 44 74 0.9 2.6 0.02 1.31 0.60 96 1006.5
20260506131342 44 74 1.7 2.6 0.02 1.31 0.60 96 1006.5
20260506130857 44 74 0.0 3.5 0.02 1.31 0.60 96 1006.5
20260506130333 44 67 1.7 3.5 0.02 1.31 0.60 96 1006.4
20260506125906 44 35 1.7 3.5 0.02 1.31 0.60 96 1006.3
20260506125347 44 85 0.9 5.2 0.02 1.31 0.60 96 1006.3
20260506124851 44 86 2.6 5.2 0.03 1.31 0.60 96 1006.1
20260506124343 44 47 0.9 2.6 0.02 1.30 0.59 96 1006.2
20260506123836 44 76 1.7 2.6 0.02 1.30 0.59 96 1006.0
20260506123334 44 51 0.9 3.5 0.02 1.30 0.59 96 1006.3
20260506122847 44 51 1.7 3.5 0.03 1.30 0.59 96 1006.3
20260506122409 44 82 1.7 4.3 0.02 1.29 0.58 96 1006.3
20260506121844 44 18 2.6 4.3 0.03 1.29 0.58 96 1006.1
20260506121339 44 31 1.7 3.5 0.04 1.29 0.58 96 1006.1
20260506120835 44 58 1.7 4.3 0.04 1.29 0.58 96 1006.0
20260506120335 44 9 0.9 4.3 0.05 1.29 0.58 96 1006.0
20260506115851 44 54 1.7 5.2 0.05 1.29 0.58 96 1005.9
20260506115415 44 69 1.7 5.2 0.05 1.29 0.58 96 1005.8
20260506114851 44 98 1.7 5.2 0.04 1.28 0.57 96 1006.0
20260506114343 43 86 3.5 8.7 0.05 1.28 0.57 96 1005.9
20260506113838 43 101 2.6 13.0 0.05 1.28 0.57 96 1005.8
20260506113350 43 59 4.3 13.0 0.05 1.28 0.57 96 1006.0
20260506112851 43 76 6.1 12.2 0.04 1.27 0.56 96 1006.1
20260506112343 43 355 3.5 11.3 0.04 1.27 0.56 96 1006.2
20260506111858 43 348 5.2 11.3 0.04 1.26 0.55 96 1006.2
20260506111411 44 28 6.1 9.6 0.03 1.25 0.54 96 1006.3
20260506110852 44 54 1.7 10.4 0.04 1.25 0.54 96 1006.2
20260506110341 44 5 3.5 11.3 0.03 1.24 0.53 96 1006.1
20260506105834 44 302 2.6 13.0 0.04 1.24 0.53 96 1005.7